This is the latest recevied weather packets stored in our database for station/object VE6EN. If no packets are shown the sender has not sent any weather packets the latest 10 day(s).
| Time | Temp. | Humidity | Pressure | Rain* | Wind** | Luminosity | Snow |
|---|---|---|---|---|---|---|---|
| 1788126604 | 14.44° C | 73% | 1008 hPa | 0 mm | - | - | - |
| 1788126003 | 13.89° C | 73% | 1008 hPa | 0 mm | - | - | - |
| 1788125404 | 13.89° C | 73% | 1007.8 hPa | 0 mm | - | - | - |
| 1788124803 | 13.89° C | 73% | 1007.8 hPa | 0 mm | - | - | - |
| 1788124205 | 13.33° C | 75% | 1007.8 hPa | 0 mm | - | - | - |
| 1788123603 | 12.78° C | 79% | 1007.7 hPa | 0 mm | - | - | - |
| 1788123003 | 12.22° C | 83% | 1007.7 hPa | 0 mm | - | - | - |
| 1788122403 | 11.67° C | 84% | 1007.8 hPa | 0 mm | - | - | - |
| 1788121803 | 11.11° C | 84% | 1007.8 hPa | 0 mm | - | - | - |
| 1788121203 | 10.56° C | 82% | 1007.7 hPa | 0 mm | - | - | - |
| 1788120602 | 10.56° C | 81% | 1007.9 hPa | 0 mm | - | - | - |
| 1788120004 | 10.56° C | 80% | 1007.9 hPa | 0 mm | - | - | - |
| 1788119406 | 10.56° C | 80% | 1007.9 hPa | 0 mm | - | - | - |
| 1788118804 | 10° C | 81% | 1007.8 hPa | 0 mm | - | - | - |
| 1788118203 | 10° C | 80% | 1008 hPa | 0 mm | - | - | - |
| 1788117603 | 10° C | 81% | 1008 hPa | 0 mm | - | - | - |
| 1788117003 | 10° C | 81% | 1008.1 hPa | 0 mm | - | - | - |
| 1788116408 | 10° C | 81% | 1008.1 hPa | 0 mm | - | - | - |
| 1788115802 | 10° C | 81% | 1008.1 hPa | 0 mm | - | - | - |
| 1788115203 | 10° C | 81% | 1008 hPa | 0 mm | - | - | - |
| 1788114603 | 10° C | 81% | 1007.8 hPa | 0 mm | - | - | - |
| 1788114004 | 10° C | 82% | 1007.7 hPa | 0 mm | - | - | - |
| 1788113403 | 10° C | 82% | 1007.6 hPa | 0 mm | - | - | - |
| 1788112804 | 9.44° C | 84% | 1007.6 hPa | 0 mm | - | - | - |
| 1788112210 | 9.44° C | 84% | 1007.8 hPa | 0 mm | - | - | - |
* Rain latest hour (hover to see other rain measurements)
** Current wind speed in m/s (hover to see current wind gust speed)